time_stamp(utc),avg(mph),gust(mph),direction(deg),12m_air_temp(f),sonic_u(cm/s),sonic_v(cm/s),sonic_w(cm/s),pressure,2m_air_temp(f),pyranometer(W/m^2)
"2019-09-18 00:03:57+00",8.1,9.1,,67.7,356,-38,13,1019.24,65.6,0
"2019-09-18 00:08:57+00",7.7,8.7,,67.8,341,-7,14,1019.32,65.6,0
"2019-09-18 00:13:57+00",8.2,9.2,,67.8,371,-14,16,1019.41,65.6,0
"2019-09-18 00:18:57+00",8.7,9.7,,67.8,383,-24,20,1019.38,65.5,0
"2019-09-18 00:23:57+00",9.1,10.1,,67.7,399,-45,14,1019.38,65.5,0
"2019-09-18 00:28:57+00",8.8,9.8,,67.6,389,-41,25,1019.45,65.5,0
"2019-09-18 00:33:57+00",9.2,11.2,,67.6,405,24,20,1019.44,65.5,0
"2019-09-18 00:38:57+00",9.5,10.5,,67.8,427,-5,20,1019.46,65.5,0
"2019-09-18 00:43:57+00",9.9,11.9,,67.9,447,-11,23,1019.46,65.8,0
"2019-09-18 00:48:57+00",9.4,11.4,,67.6,422,31,14,1019.52,65.9,0
"2019-09-18 00:53:57+00",10.0,11.0,,67.7,451,6,21,1019.6,65.9,0
"2019-09-18 00:58:57+00",10.5,12.5,,67.6,474,-26,17,1019.6,66,0
"2019-09-18 01:03:57+00",10.8,13.8,,67.7,476,-59,5,1019.58,66.1,0
"2019-09-18 01:08:57+00",11.7,13.7,,67.6,515,-65,7,1019.55,66.2,0
"2019-09-18 01:13:57+00",11.3,12.3,,67.5,498,-30,6,1019.54,66.2,0
"2019-09-18 01:18:57+00",12.2,13.2,,67.8,546,-18,16,1019.54,66.3,0
"2019-09-18 01:23:57+00",11.7,12.7,,67.8,530,-22,16,1019.53,66.4,0
"2019-09-18 01:28:57+00",10.3,12.3,,67.7,464,40,30,1019.55,66.5,0
"2019-09-18 01:33:57+00",9.3,10.3,,67.6,414,6,18,1019.55,66.4,0
"2019-09-18 01:38:57+00",10.4,11.4,,67.6,466,-3,11,1019.56,66.2,0
"2019-09-18 01:43:57+00",12.1,13.1,,67.9,540,57,25,1019.62,66.1,0
"2019-09-18 01:48:57+00",12.8,14.8,,67.9,572,25,25,1019.54,66.2,0
"2019-09-18 01:53:57+00",13.9,15.9,,68.1,621,37,29,1019.54,66.3,0
"2019-09-18 01:58:57+00",13.1,15.1,,68.2,581,38,28,1019.51,66.4,0
"2019-09-18 02:03:57+00",9.6,11.6,,68,419,47,23,1019.42,66.5,0
"2019-09-18 02:08:57+00",10.8,11.8,,68,488,17,20,1019.47,66.5,0
"2019-09-18 02:13:57+00",13.4,15.4,,68.2,600,133,26,1019.5,66.5,0
"2019-09-18 02:18:57+00",11.7,13.7,,68.1,514,111,32,1019.61,66.6,0
"2019-09-18 02:23:57+00",12.2,14.2,,68.2,547,-5,30,1019.57,66.6,0
"2019-09-18 02:28:57+00",13.3,14.3,,68.2,582,137,29,1019.59,66.7,0
"2019-09-18 02:33:57+00",11.0,13.0,,68,485,82,23,1019.66,66.7,0
"2019-09-18 02:38:57+00",13.0,15.0,,68.1,584,58,31,1019.61,66.7,0
"2019-09-18 02:43:57+00",15.4,17.4,,68.1,695,42,29,1019.58,66.7,0
"2019-09-18 02:48:57+00",15.4,18.4,,68.1,683,105,35,1019.53,66.8,0
"2019-09-18 02:53:57+00",15.6,18.6,,68.1,685,134,40,1019.5,66.8,0
"2019-09-18 02:58:57+00",14.3,16.3,,68.1,628,149,23,1019.5,66.8,0
"2019-09-18 03:03:57+00",12.5,13.5,,68.1,553,91,31,1019.52,66.7,0
"2019-09-18 03:08:57+00",14.4,16.4,,68,650,16,24,1019.56,66.7,0
"2019-09-18 03:13:57+00",11.5,13.5,,68,520,16,26,1019.48,66.8,0
"2019-09-18 03:18:57+00",15.2,17.2,,68.1,681,47,25,1019.47,66.9,0
"2019-09-18 03:23:57+00",13.4,16.4,,68,593,85,31,1019.47,66.9,0
"2019-09-18 03:28:57+00",12.6,14.6,,68.1,556,92,35,1019.47,66.8,0
"2019-09-18 03:33:57+00",13.7,16.7,,67.8,602,108,35,1019.5,66.7,0
"2019-09-18 03:38:57+00",13.8,15.8,,67.8,613,84,34,1019.42,66.7,0
"2019-09-18 03:43:57+00",15.7,16.7,,67.7,697,117,36,1019.4,66.6,0
"2019-09-18 03:48:57+00",13.1,16.1,,67.5,585,-21,15,1019.42,66.6,0
"2019-09-18 03:53:57+00",13.2,15.2,,67.5,596,26,45,1019.43,66.5,0
"2019-09-18 03:58:57+00",13.4,16.4,,67.3,600,56,27,1019.44,66.4,0
"2019-09-18 04:03:57+00",13.5,16.5,,67.3,610,-2,27,1019.46,66.3,0
"2019-09-18 04:08:57+00",14.9,15.9,,67.1,667,41,23,1019.42,66.3,0
"2019-09-18 04:13:57+00",12.8,14.8,,67.1,574,-11,26,1019.42,66.3,0
"2019-09-18 04:18:57+00",12.2,13.2,,66.9,550,-63,12,1019.4,66.2,0
"2019-09-18 04:23:57+00",14.6,16.6,,66.9,650,58,17,1019.44,66.1,0
"2019-09-18 04:28:57+00",10.8,13.8,,66.8,486,16,24,1019.48,66,0
"2019-09-18 04:33:57+00",9.9,10.9,,66.8,437,27,32,1019.54,65.9,0
"2019-09-18 04:38:57+00",10.1,12.1,,66.6,455,0,6,1019.61,65.7,0
"2019-09-18 04:43:57+00",11.9,13.9,,66.7,534,4,33,1019.63,65.6,0
"2019-09-18 04:48:57+00",11.6,13.6,,66.6,526,-18,29,1019.62,65.6,0
"2019-09-18 04:53:57+00",14.2,16.2,,66.8,628,98,29,1019.67,65.6,0
"2019-09-18 04:58:57+00",12.2,13.2,,66.8,546,56,35,1019.75,65.6,0
"2019-09-18 05:03:57+00",11.7,13.7,,66.6,520,29,20,1019.77,65.6,0
"2019-09-18 05:08:57+00",13.2,14.2,,66.6,581,70,29,1019.7,65.5,0
"2019-09-18 05:13:57+00",10.1,14.1,,66.5,455,31,23,1019.73,65.4,0
"2019-09-18 05:18:57+00",13.3,15.3,,66.6,590,66,29,1019.73,65.3,0
"2019-09-18 05:23:57+00",13.6,14.6,,66.6,597,112,25,1019.72,65.3,0
"2019-09-18 05:28:57+00",11.4,13.4,,66.5,508,21,20,1019.58,65.3,0
"2019-09-18 05:33:57+00",11.4,12.4,,66.4,504,73,25,1019.63,65.2,0
"2019-09-18 05:38:57+00",10.2,11.2,,66.3,446,106,33,1019.65,65.2,0
"2019-09-18 05:43:57+00",13.0,15.0,,66.2,577,103,28,1019.69,65,0
"2019-09-18 05:48:57+00",12.4,14.4,,66.3,547,139,30,1019.62,64.9,0
"2019-09-18 05:53:57+00",11.9,13.9,,66.4,527,40,21,1019.72,64.9,0
"2019-09-18 05:58:57+00",12.8,14.8,,66.3,573,69,15,1019.65,64.9,0
"2019-09-18 06:03:57+00",12.9,14.9,,66.3,576,75,31,1019.48,64.9,0
"2019-09-18 06:08:57+00",9.4,11.4,,66.2,394,146,22,1019.56,64.8,0
"2019-09-18 06:13:57+00",14.3,16.3,,66.1,620,157,33,1019.63,64.7,0
"2019-09-18 06:18:57+00",11.4,12.4,,66.1,497,104,26,1019.59,64.7,0
"2019-09-18 06:23:57+00",12.0,14.0,,65.8,532,84,38,1019.58,64.6,0
"2019-09-18 06:28:57+00",11.9,13.9,,66,504,185,20,1019.65,64.5,0
"2019-09-18 06:33:57+00",11.7,12.7,,66,479,206,15,1019.68,64.5,0
"2019-09-18 06:38:57+00",10.1,12.1,,65.9,439,147,22,1019.72,64.4,0
"2019-09-18 06:43:57+00",10.9,12.9,,66,476,151,29,1019.66,64.4,0
"2019-09-18 06:48:57+00",10.5,11.5,,65.9,426,193,21,1019.66,64.3,0
"2019-09-18 06:53:57+00",10.2,12.2,,65.7,436,158,26,1019.75,64.2,0
"2019-09-18 06:58:57+00",9.7,10.7,,65.9,385,190,18,1019.71,64.2,0
"2019-09-18 07:03:57+00",11.2,12.2,,66,473,189,11,1019.65,64.1,0
"2019-09-18 07:08:57+00",10.2,11.2,,66,398,211,23,1019.7,64.1,0
"2019-09-18 07:13:57+00",10.2,12.2,,65.8,437,150,29,1019.71,64.1,0
"2019-09-18 07:18:57+00",10.1,11.1,,65.9,403,187,17,1019.73,64.1,0
"2019-09-18 07:23:57+00",8.4,9.4,,65.6,357,119,20,1019.78,63.9,0
"2019-09-18 07:28:57+00",8.3,10.3,,65.5,349,134,16,1019.71,63.7,0
"2019-09-18 07:33:57+00",10.5,12.5,,65.6,423,193,15,1019.68,63.6,0
"2019-09-18 07:38:57+00",11.9,13.9,,65.6,482,225,14,1019.72,63.6,0
"2019-09-18 07:43:57+00",10.6,11.6,,65.9,431,188,15,1019.75,63.7,0
"2019-09-18 07:48:57+00",10.5,12.5,,65.5,418,202,9,1019.73,63.7,0
"2019-09-18 07:53:57+00",8.9,10.9,,65.5,333,200,20,1019.75,63.8,0
"2019-09-18 07:58:57+00",12.0,13.0,,65.6,461,264,21,1019.73,63.8,0
"2019-09-18 08:03:57+00",11.1,13.1,,65.7,442,208,11,1019.77,63.9,0
"2019-09-18 08:08:57+00",8.4,9.4,,65.4,316,183,30,1019.82,63.9,0
"2019-09-18 08:13:57+00",6.1,7.1,,63.7,-11,260,9,1019.82,63.5,0
"2019-09-18 08:18:57+00",4.9,5.9,,62.8,53,206,31,1019.86,62.8,0
"2019-09-18 08:23:57+00",5.2,6.2,,62.5,57,199,3,1019.83,62.2,0
"2019-09-18 08:28:57+00",3.0,4.0,,62,18,121,-3,1019.82,61.9,0
"2019-09-18 08:33:57+00",6.8,7.8,,62.1,49,283,-6,1019.84,61.6,0
"2019-09-18 08:38:57+00",5.6,6.6,,62.2,36,234,10,1019.76,61.5,0
"2019-09-18 08:43:57+00",5.3,7.3,,62,8,231,13,1019.81,61.4,0
"2019-09-18 08:48:57+00",7.7,8.7,,62.1,43,320,3,1019.85,61.3,0
"2019-09-18 08:53:57+00",7.8,8.8,,62.3,63,322,2,1019.92,61.2,0
"2019-09-18 08:58:57+00",7.8,9.8,,62.6,197,264,-3,1019.8,61.2,0
"2019-09-18 09:03:57+00",6.9,7.9,,62.2,42,290,5,1019.82,61.2,0
"2019-09-18 09:08:57+00",7.6,8.6,,62,86,304,-3,1019.9,61,0
"2019-09-18 09:13:57+00",8.8,9.8,,62.8,323,203,39,1019.8,60.8,0
"2019-09-18 09:18:57+00",9.9,13.9,,64.6,304,292,23,1019.84,61.5,0
"2019-09-18 09:23:57+00",8.1,10.1,,64.8,181,286,6,1019.78,62.4,0
"2019-09-18 09:28:57+00",5.3,7.3,,63.4,125,176,6,1019.92,62.3,0
"2019-09-18 09:33:57+00",6.3,8.3,,62.8,97,243,0,1020,62.1,0
"2019-09-18 09:38:57+00",8.3,9.3,,62.3,68,356,4,1020.02,61.8,0
"2019-09-18 09:43:57+00",7.9,8.9,,62,82,325,5,1020.11,61.4,0
"2019-09-18 09:48:57+00",5.3,6.3,,61.8,68,200,3,1020.09,61.1,0
"2019-09-18 09:53:57+00",7.7,8.7,,62.1,169,275,10,1020.06,60.8,0
"2019-09-18 09:58:57+00",6.4,8.4,,62.1,93,252,4,1020.12,60.7,0
"2019-09-18 10:03:57+00",5.1,6.1,,61.7,107,181,0,1020.15,60.4,0
"2019-09-18 10:08:57+00",7.4,8.4,,62.3,149,272,12,1020.26,60.5,0
"2019-09-18 10:13:57+00",6.8,7.8,,62.1,60,275,3,1020.34,60.6,0
"2019-09-18 10:18:57+00",8.5,9.5,,61.7,62,362,0,1020.33,60.4,0
"2019-09-18 10:23:57+00",7.3,8.3,,61.4,84,291,5,1020.3,60.2,0
"2019-09-18 10:28:57+00",6.6,7.6,,61.4,106,255,-8,1020.49,60,0
"2019-09-18 10:33:57+00",8.9,9.9,,60.9,5,386,30,1020.53,59.8,0
"2019-09-18 10:38:57+00",10.3,11.3,,61.2,-12,456,18,1020.64,59.6,0
"2019-09-18 10:43:57+00",7.2,8.2,,61.2,-33,316,12,1020.65,59.7,0
"2019-09-18 10:48:57+00",6.0,7.0,,61,19,251,20,1020.7,59.6,0
"2019-09-18 10:53:57+00",5.7,6.7,,60.8,61,227,-9,1020.85,59.5,0
"2019-09-18 10:58:57+00",6.8,7.8,,61,53,278,3,1020.75,59.6,0
"2019-09-18 11:03:57+00",6.5,7.5,,61.2,75,251,1,1020.84,59.9,0
"2019-09-18 11:08:57+00",9.9,12.9,,62.4,314,285,29,1020.87,60.4,0
"2019-09-18 11:13:57+00",12.5,13.5,,64.7,503,239,32,1020.81,61.8,0
"2019-09-18 11:18:57+00",13.4,15.4,,65.3,506,310,29,1020.91,63.2,0
"2019-09-18 11:23:57+00",13.9,15.9,,65.4,548,292,42,1021.02,63.9,0
"2019-09-18 11:28:57+00",16.4,18.4,,65.5,644,349,29,1021.01,64.3,0
"2019-09-18 11:33:57+00",13.8,16.8,,65.6,512,333,27,1021.03,64.6,0
"2019-09-18 11:38:57+00",12.8,14.8,,65.6,490,287,39,1021.05,64.8,0
"2019-09-18 11:43:57+00",12.0,14.0,,65.4,452,275,39,1021.1,64.8,0
"2019-09-18 11:48:57+00",11.3,13.3,,65.4,430,256,32,1021.09,64.8,1.7
"2019-09-18 11:53:57+00",16.2,19.2,,65.6,581,416,19,1021.08,64.8,1.4
"2019-09-18 11:58:57+00",9.0,13.0,,65.7,277,252,41,1021.27,65.1,7.9
"2019-09-18 12:03:57+00",11.3,13.3,,65.5,422,249,50,1021.28,65.5,56.2
"2019-09-18 12:08:57+00",16.5,19.5,,65.7,730,229,38,1021.24,65.8,29.5
"2019-09-18 12:13:57+00",15.2,18.2,,65.6,641,249,29,1021.27,65.7,11.9
"2019-09-18 12:18:57+00",15.1,22.1,,66,598,308,61,1021.36,66.3,157.8
"2019-09-18 12:23:57+00",16.5,21.5,,66,679,293,29,1021.41,66.7,43.2
"2019-09-18 12:28:57+00",17.6,20.6,,66.1,728,308,45,1021.35,66.7,107.6
"2019-09-18 12:33:57+00",18.3,21.3,,66.2,812,188,57,1021.34,67.1,99.8
"2019-09-18 12:38:57+00",17.2,21.2,,66.2,670,377,46,1021.42,67.2,229.8
"2019-09-18 12:43:57+00",20.9,23.9,,66.3,847,398,21,1021.42,67.7,223.2
"2019-09-18 12:48:57+00",17.0,19.0,,66.2,677,336,30,1021.37,67.7,72
"2019-09-18 12:53:57+00",16.2,18.2,,66.4,689,275,42,1021.48,67.9,177.1
"2019-09-18 12:58:57+00",17.8,22.8,,66,671,419,47,1021.57,67.4,58
"2019-09-18 13:03:57+00",12.8,16.8,,65.9,503,259,32,1021.77,66.7,83.8
"2019-09-18 13:08:57+00",19.2,23.2,,66.1,718,471,36,1021.79,66.9,140
"2019-09-18 13:13:57+00",17.7,21.7,,66.4,759,274,61,1021.85,67.6,291.4
"2019-09-18 13:18:57+00",16.4,20.4,,66.3,695,276,49,1021.95,68.3,263.2
"2019-09-18 13:23:57+00",13.7,16.7,,66,549,263,45,1021.99,67.5,50.5
"2019-09-18 13:28:57+00",20.6,23.6,,66.3,851,393,17,1022.01,68,318
"2019-09-18 13:33:57+00",17.0,19.0,,67,626,416,73,1022,68.7,199.8
"2019-09-18 13:38:57+00",18.1,24.1,,66.4,784,274,28,1022.07,68.5,271.6
"2019-09-18 13:43:57+00",16.6,20.6,,66.4,595,412,55,1021.95,68.4,174.2
"2019-09-18 13:48:57+00",17.8,20.8,,66.7,784,215,60,1022,69.3,353
"2019-09-18 13:53:57+00",18.8,20.8,,66.5,717,432,21,1022.09,69,354.5
"2019-09-18 13:58:57+00",20.1,22.1,,66.5,877,267,35,1022.07,69.5,370.7
"2019-09-18 14:03:57+00",14.3,17.3,,66.5,531,346,39,1022.2,69.1,356.9
"2019-09-18 14:08:57+00",18.0,20.0,,66.4,708,383,24,1022.14,68.9,359.5
"2019-09-18 14:13:57+00",16.8,18.8,,66.5,702,281,42,1022.13,69.4,158.9
"2019-09-18 14:18:57+00",16.5,19.5,,66,619,363,29,1022.12,68.1,73.2
"2019-09-18 14:23:57+00",19.5,22.5,,65.9,776,400,24,1022.22,67.4,31.7
"2019-09-18 14:28:57+00",19.3,22.3,,65.5,770,388,35,1022.33,66.5,6.8
"2019-09-18 14:33:57+00",16.1,19.1,,65.1,634,342,25,1022.48,65.8,0
"2019-09-18 14:38:57+00",17.3,22.3,,65,718,313,53,1022.33,65.2,0.6
"2019-09-18 14:43:57+00",20.0,24.0,,65.2,798,407,54,1022.27,65.1,26.1
"2019-09-18 14:48:57+00",21.9,25.9,,65.3,940,339,42,1022.24,65.5,88.5
"2019-09-18 14:53:57+00",21.6,24.6,,65.5,856,455,32,1022.17,66.1,288.1
"2019-09-18 14:58:57+00",21.5,26.5,,66.2,921,308,52,1022.23,68,516.2
"2019-09-18 15:03:57+00",20.8,25.8,,66,828,430,18,1022.04,68.3,158.4
"2019-09-18 15:08:57+00",21.9,24.9,,65.7,828,516,41,1022.23,67.6,90.9
"2019-09-18 15:13:57+00",18.4,21.4,,65.6,752,351,44,1022.3,66.9,68.2
"2019-09-18 15:18:57+00",22.6,26.6,,65.3,912,435,38,1022.29,66.5,79.3
"2019-09-18 15:23:57+00",21.1,24.1,,65.4,807,486,24,1022.34,66.5,122.9
"2019-09-18 15:28:57+00",22.3,26.3,,65.5,856,510,34,1022.34,66.7,304.2
"2019-09-18 15:33:57+00",21.9,24.9,,65.7,870,457,42,1022.37,67,236.4
"2019-09-18 15:38:57+00",22.2,25.2,,65.5,956,339,44,1022.34,67,166.8
"2019-09-18 15:43:57+00",17.7,21.7,,65.8,679,403,57,1022.38,67,171.2
"2019-09-18 15:48:57+00",21.0,24.0,,65.8,826,457,40,1022.45,67.4,569.6
"2019-09-18 15:53:57+00",22.8,24.8,,65.6,902,476,27,1022.49,67.7,314.6
"2019-09-18 15:58:57+00",20.9,25.9,,65.6,817,458,48,1022.45,67.3,161.8
"2019-09-18 16:03:57+00",22.7,25.7,,65.4,907,455,29,1022.53,67,158
"2019-09-18 16:08:57+00",20.6,23.6,,65.5,878,320,39,1022.57,67.1,401.9
"2019-09-18 16:13:57+00",22.9,26.9,,65.7,822,590,33,1022.59,67.5,288.9
"2019-09-18 16:18:57+00",22.6,24.6,,65.4,791,602,23,1022.54,67,172.6
"2019-09-18 16:23:57+00",22.2,26.2,,65.4,873,476,46,1022.62,67.6,416.7
"2019-09-18 16:28:57+00",19.6,23.6,,65.6,805,381,47,1022.58,67.7,506.9
"2019-09-18 16:33:57+00",16.9,20.9,,65.9,678,334,70,1022.52,68.3,493.2
"2019-09-18 16:38:57+00",20.4,22.4,,65.7,756,494,26,1022.5,68.5,278.6
"2019-09-18 16:43:57+00",20.3,23.3,,65.7,779,451,34,1022.38,68.5,491
"2019-09-18 16:48:57+00",19.9,23.9,,65.7,742,489,49,1022.37,68.4,494.8
"2019-09-18 16:53:57+00",20.3,24.3,,65.6,723,527,45,1022.24,68.5,513.3
"2019-09-18 16:58:57+00",22.0,25.0,,65.6,846,500,67,1022.29,68.3,457.8
"2019-09-18 17:03:57+00",21.2,23.2,,65.3,803,505,34,1022.27,67.7,275.3
"2019-09-18 17:08:57+00",18.3,20.3,,65.6,711,404,52,1022.24,67.9,300.7
"2019-09-18 17:13:57+00",20.6,23.6,,65.2,827,416,8,1022.3,68,478.1
"2019-09-18 17:18:57+00",18.7,21.7,,65.4,707,442,26,1022.34,68.4,492
"2019-09-18 17:23:57+00",18.5,22.5,,65.6,744,372,57,1022.4,68.5,482.8
"2019-09-18 17:28:57+00",20.5,23.5,,65.6,720,544,28,1022.29,68.3,483.3
"2019-09-18 17:33:57+00",20.5,23.5,,65.4,807,431,17,1022.27,68.3,484
"2019-09-18 17:38:57+00",18.0,20.0,,65.7,758,358,36,1022.29,68.6,415.8
"2019-09-18 17:43:57+00",15.4,17.4,,65.8,625,301,56,1022.43,68.7,468.3
"2019-09-18 17:48:57+00",20.0,22.0,,65.8,732,504,29,1022.41,68.6,464.2
"2019-09-18 17:53:57+00",20.0,25.0,,65.8,680,546,32,1022.35,68.6,462.2
"2019-09-18 17:58:57+00",20.2,23.2,,65.6,779,450,51,1022.32,68.6,454.7
"2019-09-18 18:03:57+00",19.7,21.7,,65.5,633,537,12,1022.33,68.5,445.1
"2019-09-18 18:08:57+00",19.5,22.5,,66.1,695,510,44,1022.38,68.8,438.3
"2019-09-18 18:13:57+00",16.9,19.9,,65.8,652,366,63,1022.42,68.7,432.3
"2019-09-18 18:18:57+00",18.2,21.2,,65.9,746,341,32,1022.43,68.8,431.6
"2019-09-18 18:23:57+00",16.2,19.2,,65.4,555,435,13,1022.42,68.5,364.8
"2019-09-18 18:28:57+00",15.5,19.5,,65.9,626,307,45,1022.41,68.6,375.7
"2019-09-18 18:33:57+00",21.7,25.7,,65.7,802,539,24,1022.37,68.5,419.4
"2019-09-18 18:38:57+00",19.8,21.8,,65.6,774,433,44,1022.48,68.5,402.7
"2019-09-18 18:43:57+00",19.1,25.1,,65.7,740,417,6,1022.46,68.4,404.8
"2019-09-18 18:48:57+00",17.8,21.8,,65.7,694,378,36,1022.56,68.5,408.2
"2019-09-18 18:53:57+00",18.8,20.8,,65.9,760,363,21,1022.51,68.9,421.8
"2019-09-18 18:58:57+00",17.2,22.2,,65.9,756,208,73,1022.55,69.2,406.7
"2019-09-18 19:03:57+00",19.7,23.7,,65.6,775,428,36,1022.56,68.5,416.7
"2019-09-18 19:08:57+00",19.4,21.4,,65.2,777,394,11,1022.62,68.7,420.9
"2019-09-18 19:13:57+00",19.3,21.3,,65.3,686,505,38,1022.68,68.3,444.8
"2019-09-18 19:18:57+00",18.7,22.7,,65.5,668,485,39,1022.69,68.4,195.6
"2019-09-18 19:23:57+00",20.2,23.2,,65.4,807,414,36,1022.68,67.9,103.8
"2019-09-18 19:28:57+00",19.7,23.7,,65,753,447,31,1022.72,67.5,352.9
"2019-09-18 19:33:57+00",17.4,20.4,,65.5,648,421,45,1022.78,68,311.8
"2019-09-18 19:38:57+00",16.5,18.5,,65.3,646,349,60,1022.81,68.1,361.9
"2019-09-18 19:43:57+00",18.6,21.6,,65.3,734,378,35,1022.88,68.1,325.2
"2019-09-18 19:48:57+00",16.6,18.6,,65.5,667,330,52,1022.91,68.4,209.6
"2019-09-18 19:53:57+00",21.0,25.0,,64.9,826,435,22,1022.83,67.9,306.2
"2019-09-18 19:58:57+00",17.6,21.6,,65.1,728,318,51,1022.89,67.8,76.6
"2019-09-18 20:03:57+00",19.5,24.5,,65.6,818,382,63,1022.9,67.6,118.4
"2019-09-18 20:08:57+00",19.5,23.5,,65,819,314,37,1022.87,67.5,158.1
"2019-09-18 20:13:57+00",17.6,20.6,,65.4,647,432,41,1022.9,67.7,278.8
"2019-09-18 20:18:57+00",15.9,18.9,,65.2,637,332,72,1022.95,67.6,238.6
"2019-09-18 20:23:57+00",19.1,22.1,,65.3,771,372,44,1023.02,67.5,42.9
"2019-09-18 20:28:57+00",18.2,20.2,,65,698,419,49,1023.03,67.3,244.2
"2019-09-18 20:33:57+00",19.6,21.6,,64.8,840,272,43,1023,67.1,213.9
"2019-09-18 20:38:57+00",23.8,27.8,,64.8,1023,342,21,1023,67,130.6
"2019-09-18 20:43:57+00",21.2,23.2,,64.9,916,318,49,1022.97,66.9,198.8
"2019-09-18 20:48:57+00",21.8,25.8,,64.8,885,381,36,1022.94,66.8,212
"2019-09-18 20:53:57+00",19.6,22.6,,64.3,812,355,5,1022.91,66.6,132.2
"2019-09-18 20:58:57+00",18.8,22.8,,64.8,767,347,66,1022.92,66.4,172.5
"2019-09-18 21:03:57+00",21.1,25.1,,64.5,871,384,25,1022.86,66.3,153.7
"2019-09-18 21:08:57+00",21.9,25.9,,64.4,950,304,35,1022.83,66.1,162.3
"2019-09-18 21:13:57+00",20.1,23.1,,64.4,867,322,48,1022.82,66,150
"2019-09-18 21:18:57+00",23.0,28.0,,64.3,930,453,26,1022.79,65.9,142.6
"2019-09-18 21:23:57+00",21.1,24.1,,64.2,885,358,49,1022.89,65.5,77.9
"2019-09-18 21:28:57+00",18.3,22.3,,64.1,785,267,51,1022.94,65.3,115.6
"2019-09-18 21:33:57+00",16.5,19.5,,64.3,700,272,56,1022.97,65.4,83.6
"2019-09-18 21:38:57+00",21.9,24.9,,64.1,879,427,34,1022.94,65.4,101.2
"2019-09-18 21:43:57+00",18.9,20.9,,64.1,776,353,-2,1022.96,65.2,30.6
"2019-09-18 21:48:57+00",20.7,24.7,,64.2,910,252,58,1023.01,65.1,79.4
"2019-09-18 21:53:57+00",20.5,24.5,,64.3,826,382,34,1022.89,65.1,68
"2019-09-18 21:58:57+00",21.1,24.1,,64.1,867,391,50,1022.93,64.9,54
"2019-09-18 22:03:57+00",20.5,23.5,,64,835,398,19,1023.01,64.7,45.3
"2019-09-18 22:08:57+00",22.1,25.1,,63.9,943,355,37,1023.02,64.5,20.5
"2019-09-18 22:13:57+00",21.7,25.7,,63.9,913,364,27,1023.01,64.3,17.3
"2019-09-18 22:18:57+00",21.7,24.7,,63.9,783,558,25,1022.98,64.2,8.1
"2019-09-18 22:23:57+00",22.0,25.0,,63.6,963,316,34,1023.02,64,9.5
"2019-09-18 22:28:57+00",22.7,25.7,,63.7,985,321,33,1022.97,63.8,2.7
"2019-09-18 22:33:57+00",19.7,22.7,,63.6,862,243,54,1022.98,63.7,0
"2019-09-18 22:38:57+00",21.1,24.1,,63.5,885,366,19,1023.05,63.5,0
"2019-09-18 22:43:57+00",19.5,23.5,,63.5,802,353,35,1023.12,63.3,0
"2019-09-18 22:48:57+00",20.9,23.9,,63.5,831,427,36,1023.16,63.1,0
"2019-09-18 22:53:57+00",19.3,24.3,,63.4,770,396,28,1023.1,63,0
"2019-09-18 22:58:57+00",20.9,24.9,,63.4,895,354,17,1023.09,63,0
"2019-09-18 23:03:57+00",19.8,22.8,,63.3,824,335,20,1023.08,62.9,0
"2019-09-18 23:08:57+00",22.0,25.0,,63.4,962,296,45,1023.14,63,0
"2019-09-18 23:13:57+00",19.3,22.3,,63.3,854,225,46,1023.28,63,0
"2019-09-18 23:18:57+00",19.0,20.0,,63.2,796,333,24,1023.3,63,0
"2019-09-18 23:23:57+00",18.2,22.2,,63.3,749,330,29,1023.25,63,0
"2019-09-18 23:28:57+00",17.6,20.6,,63.3,769,218,47,1023.23,62.9,0
"2019-09-18 23:33:57+00",23.3,29.3,,63.3,1016,282,48,1023.21,62.9,0
"2019-09-18 23:38:57+00",21.5,24.5,,63.2,919,278,44,1023.27,62.7,0
"2019-09-18 23:43:57+00",21.9,23.9,,63.2,929,363,34,1023.35,62.7,0
"2019-09-18 23:48:57+00",17.2,20.2,,63.1,707,306,29,1023.56,62.6,0
"2019-09-18 23:53:57+00",17.5,20.5,,63.2,763,247,61,1023.59,62.6,0
"2019-09-18 23:58:57+00",19.0,23.0,,63.1,837,127,36,1023.56,62.5,0
